Flag Weather past 2 weeks in Passaic, New Jersey, U.S.A.

Now
50 °F

Clear.


Feels Like: 50 °F
Forecast: 46 / 68 °F
Wind: No wind

Location: Teterboro Airport

Current Time: Nov 23, 2014 at 8:29:18 PM

Latest Report: Nov 23, 2014 at 7:51 PM


Visibility: 10 mi

Pressure: 30.10 "Hg

Humidity: 46%

Dew point: 30 °F

Location of PassaicLocation

Historic Weather in Passaic — Graph

°F

Passaic temperature yesterday

Maximum temperature yesterday: 43 °F (at 1:51 PM)
Minimum temperature yesterday: 22 °F (at 6:51 AM)
Average temperature yesterday: 35 °F

Past Weeks' High & Low Weather Summary

 TemperatureHumidityPressure
High66 °F (Nov 12, 1:51 PM)96% (Nov 12, 7:51 AM)30.51 "Hg (Nov 12, 7:51 AM)
Low22 °F (Nov 19, 3:51 AM)26% (Nov 22, 1:51 PM)29.51 "Hg (Nov 17, 7:51 PM)
Average41 °F56%30.07 "Hg
* Reported Nov 8 6:51 PM — Nov 23 6:51 PM, Passaic, Weather by CustomWeather, © 2014

Note: Actual official high and low records may vary slightly from our data, if they occured in-between our weather recording intervals... More about our weather records

Advertising

Passaic weather history for previous 24 hours

 ConditionsComfort  
Time TempWeatherWind HumidityBarometerVisibility
6:51 PM
Nov 23
49 °FClear.No wind44%30.11 "Hg10 mi
5:51 PM47 °FClear.5 mph46%30.12 "Hg10 mi
4:51 PM54 °FClear.6 mph33%30.12 "Hg10 mi
3:51 PM54 °FSunny.5 mph34%30.12 "Hg10 mi
2:51 PM57 °FSunny.6 mph31%30.13 "Hg10 mi
1:51 PM55 °FSunny.10 mph30%30.12 "Hg10 mi
12:51 PM54 °FSunny.No wind30%30.12 "Hg10 mi
11:51 AM53 °FPassing clouds.3 mph31%30.14 "Hg10 mi
10:51 AM49 °FPassing clouds.9 mph36%30.18 "Hg10 mi
9:51 AM46 °FMostly cloudy.6 mph38%30.19 "Hg10 mi
8:51 AM44 °FOvercast.6 mph45%30.20 "Hg10 mi
7:51 AM42 °FOvercast.7 mph49%30.20 "Hg10 mi
6:51 AM41 °FPassing clouds.3 mph49%30.19 "Hg10 mi
5:51 AM42 °FMostly cloudy.5 mph47%30.18 "Hg10 mi
4:51 AM42 °FOvercast.5 mph47%30.17 "Hg10 mi
3:51 AM42 °FOvercast.5 mph45%30.17 "Hg10 mi
2:51 AM41 °FPassing clouds.5 mph47%30.17 "Hg10 mi
1:51 AM41 °FPassing clouds.3 mph45%30.17 "Hg10 mi
12:51 AM43 °FPassing clouds.7 mph38%30.18 "Hg10 mi
11:51 PM
Nov 22
42 °FOvercast.6 mph39%30.19 "Hg10 mi
10:51 PM42 °FPassing clouds.9 mph38%30.20 "Hg10 mi
9:51 PM43 °FPassing clouds.9 mph37%30.20 "Hg10 mi
8:51 PM43 °FPassing clouds.9 mph35%30.21 "Hg10 mi
Weather by CustomWeather, © 2014

See weather overviewHow to use our weather pages